Big Rapids, MI

7:25 AM EDT on April 23, 2017 (GMT -0400)
Roben-Hood

Weather History for KRQB - September, 2011

Change the Weather History Date:

Monday, September 19, 2011

  Actual Average Record
Temperature  
Mean Temperature 58 °F -  
Max Temperature 62 °F 69 °F 86 °F (2000)
Min Temperature 55 °F 46 °F 34 °F (1979)
Degree Days  
Heating Degree Days 6    
Growing Degree Days 8 (Base 50)    
Moisture  
Dew Point 57 °F    
Average Humidity 92    
Maximum Humidity 100    
Minimum Humidity 72    
Precipitation  
Precipitation 0.00 in - - ()
Sea Level Pressure  
Sea Level Pressure 29.90 in    
Wind  
Wind Speed 9 mph (WSW)    
Max Wind Speed 14 mph    
Max Gust Speed 21 mph    
Visibility 8 miles    
Events Rain    
Averages and records for this station are not official NWS values.
T = Trace of Precipitation, MM = Missing Value Source: NWS Daily Summary

Daily Weather History Graph

Daily Weather History Graph

Search for Another Location

Airport or City:

Trip Planner

Search our weather history database for the weather conditions in past years. The results will help you decide how hot, cold, wet, or windy it might be!

Date:

Astronomy

Sep. 19, 2011 Rise Set
Actual Time 7:25 AM EDT 7:45 PM EDT
Civil Twilight 6:56 AM EDT 8:14 PM EDT
Nautical Twilight 6:22 AM EDT 8:47 PM EDT
Astronomical Twilight 5:48 AM EDT 9:22 PM EDT
Moon 11:38 PM EDT (9/19) 2:28 PM EDT (9/19)
Length of Visible Light 13h 17m
Length of Day
12h 19m
Waning Gibbous, 59% of the Moon is Illuminated
Sep 19
Waning Gibbous
Sep 20
Last Quarter
Sep 27
New
Oct 3
First Quarter
Oct 11
Full

Hourly Weather History & Observations

Time (EDT) Temp. Dew Point Humidity Pressure Visibility Wind Dir Wind Speed Gust Speed Precip Events Conditions
12:13 AM 55.4 °F 53.6 °F 94% 30.04 in 10.0 mi SSE 9.2 mph - N/A Rain Light Rain
12:33 AM 55.4 °F 53.6 °F 94% 30.03 in 7.0 mi SSE 8.1 mph - N/A Rain Light Rain
1:14 AM 55.4 °F 53.6 °F 94% 30.01 in 10.0 mi South 9.2 mph - N/A   Overcast
1:33 AM 55.4 °F 53.6 °F 94% 30.00 in 7.0 mi SE 6.9 mph - N/A Rain Light Rain
2:14 AM 55.4 °F 53.6 °F 94% 29.98 in 7.0 mi ESE 6.9 mph - N/A   Drizzle
2:33 AM 55.4 °F 53.6 °F 94% 29.97 in 7.0 mi SSE 9.2 mph - N/A   Drizzle
2:53 AM 55.4 °F 55.4 °F 100% 29.96 in 4.0 mi SE 9.2 mph - N/A Rain Rain
3:14 AM 55.4 °F 55.4 °F 100% 29.95 in 4.0 mi SE 10.4 mph - N/A Rain Light Rain
3:33 AM 57.2 °F 55.4 °F 94% 29.94 in 3.0 mi SSE 8.1 mph - N/A Rain Rain
3:54 AM 57.2 °F 55.4 °F 94% 29.92 in 4.0 mi SE 8.1 mph - N/A Rain Rain
4:54 AM 59.0 °F 59.0 °F 100% 29.89 in 5.0 mi South 10.4 mph 17.3 mph N/A   Drizzle
5:13 AM 59.0 °F 59.0 °F 100% 29.89 in 5.0 mi South 12.7 mph 16.1 mph N/A Rain Rain
5:33 AM 59.0 °F 59.0 °F 100% 29.89 in 4.0 mi South 10.4 mph 17.3 mph N/A   Light Drizzle
5:54 AM 60.8 °F 59.0 °F 94% 29.89 in 7.0 mi SSW 10.4 mph 16.1 mph N/A   Overcast
6:13 AM 60.8 °F 59.0 °F 94% 29.88 in 5.0 mi South 9.2 mph - N/A Rain Rain
6:33 AM 60.8 °F 59.0 °F 94% 29.87 in 7.0 mi South 8.1 mph - N/A Rain Light Rain
6:54 AM 60.8 °F 59.0 °F 94% 29.87 in 7.0 mi South 8.1 mph 16.1 mph N/A Rain Light Rain
7:14 AM 60.8 °F 59.0 °F 94% 29.86 in 7.0 mi South 8.1 mph - N/A Rain Light Rain
7:33 AM 60.8 °F 60.8 °F 100% 29.86 in 5.0 mi South 6.9 mph - N/A Rain Rain
7:54 AM 60.8 °F 60.8 °F 100% 29.86 in 5.0 mi South 9.2 mph - N/A Rain Rain
8:13 AM 60.8 °F 60.8 °F 100% 29.85 in 5.0 mi South 6.9 mph - N/A Rain Rain
8:33 AM 60.8 °F 60.8 °F 100% 29.85 in 5.0 mi South 6.9 mph - N/A Rain Rain
8:54 AM 60.8 °F 60.8 °F 100% 29.85 in 7.0 mi Calm Calm - N/A Rain Rain
9:13 AM 60.8 °F 60.8 °F 100% 29.84 in 5.0 mi Calm Calm - N/A Rain Rain
9:54 AM 62.6 °F 60.8 °F 94% 29.84 in 10.0 mi WSW 4.6 mph - N/A Rain Rain
10:13 AM 60.8 °F 59.0 °F 94% 29.85 in 10.0 mi West 12.7 mph 18.4 mph N/A   Drizzle
10:54 AM 60.8 °F 59.0 °F 94% 29.86 in 4.0 mi West 8.1 mph 17.3 mph N/A Rain Rain
11:13 AM 60.8 °F 59.0 °F 94% 29.86 in 5.0 mi WNW 5.8 mph - N/A Rain Heavy Rain
11:53 AM 60.8 °F 59.0 °F 94% 29.87 in 7.0 mi WNW 13.8 mph 18.4 mph N/A   Overcast
12:13 PM 60.8 °F 59.0 °F 94% 29.87 in 10.0 mi West 10.4 mph 17.3 mph N/A   Overcast
12:33 PM 60.8 °F 59.0 °F 94% 29.88 in 10.0 mi West 10.4 mph 18.4 mph N/A Rain Light Rain
12:54 PM 60.8 °F 59.0 °F 94% 29.88 in 10.0 mi West 8.1 mph - N/A   Overcast
1:13 PM 60.8 °F 59.0 °F 94% 29.88 in 10.0 mi WNW 10.4 mph - N/A   Overcast
1:34 PM 60.8 °F 59.0 °F 94% 29.88 in 10.0 mi WNW 11.5 mph 17.3 mph N/A   Overcast
1:53 PM 60.8 °F 59.0 °F 94% 29.88 in 10.0 mi NW 6.9 mph 18.4 mph N/A Rain Light Rain
2:13 PM 60.8 °F 59.0 °F 94% 29.89 in 10.0 mi WNW 11.5 mph - N/A   Overcast
2:34 PM 60.8 °F 59.0 °F 94% 29.89 in 10.0 mi WNW 12.7 mph 19.6 mph N/A   Overcast
3:13 PM 60.8 °F 59.0 °F 94% 29.89 in 10.0 mi WNW 12.7 mph 18.4 mph N/A   Overcast
3:34 PM 60.8 °F 59.0 °F 94% 29.89 in 10.0 mi NW 9.2 mph 16.1 mph N/A   Overcast
3:54 PM 60.8 °F 59.0 °F 94% 29.90 in 10.0 mi WNW 11.5 mph 19.6 mph N/A   Overcast
4:13 PM 60.8 °F 59.0 °F 94% 29.90 in 10.0 mi WNW 10.4 mph 17.3 mph N/A   Overcast
4:34 PM 60.8 °F 57.2 °F 88% 29.90 in 10.0 mi NW 8.1 mph 18.4 mph N/A   Overcast
4:53 PM 62.6 °F 59.0 °F 88% 29.90 in 10.0 mi NNW 9.2 mph 16.1 mph N/A   Mostly Cloudy
5:13 PM 62.6 °F 55.4 °F 77% 29.90 in 10.0 mi WNW 13.8 mph 17.3 mph N/A   Overcast
5:34 PM 62.6 °F 55.4 °F 77% 29.90 in 10.0 mi NW 12.7 mph 20.7 mph N/A   Scattered Clouds
5:53 PM 62.6 °F 53.6 °F 72% 29.91 in 10.0 mi NW 12.7 mph 20.7 mph N/A   Clear
6:13 PM 62.6 °F 53.6 °F 72% 29.92 in 10.0 mi NW 9.2 mph 20.7 mph N/A   Scattered Clouds
6:34 PM 62.6 °F 53.6 °F 72% 29.92 in 10.0 mi NNW 9.2 mph - N/A   Scattered Clouds
6:53 PM 60.8 °F 53.6 °F 77% 29.93 in 10.0 mi NW 5.8 mph - N/A   Clear
7:13 PM 60.8 °F 53.6 °F 77% 29.93 in 10.0 mi NW 8.1 mph - N/A   Scattered Clouds
7:34 PM 59.0 °F 53.6 °F 82% 29.94 in 10.0 mi NW 11.5 mph 17.3 mph N/A   Clear
7:53 PM 59.0 °F 53.6 °F 82% 29.95 in 10.0 mi NW 9.2 mph 17.3 mph N/A   Clear
8:13 PM 55.4 °F 51.8 °F 88% 29.96 in 10.0 mi NW 10.4 mph - N/A   Clear
8:34 PM 55.4 °F 51.8 °F 88% 29.96 in 10.0 mi WNW 10.4 mph 16.1 mph N/A   Clear
8:53 PM 53.6 °F 51.8 °F 94% 29.97 in 10.0 mi WNW 6.9 mph - N/A   Clear
9:13 PM 51.8 °F 50.0 °F 94% 29.98 in 10.0 mi West 8.1 mph - N/A   Clear
9:34 PM 51.8 °F 51.8 °F 100% 29.98 in 10.0 mi West 8.1 mph - N/A   Clear
9:53 PM 51.8 °F 50.0 °F 94% 29.98 in 10.0 mi West 9.2 mph - N/A   Clear
10:14 PM 50.0 °F 50.0 °F 100% 29.98 in 5.0 mi Calm Calm - N/A   Clear
10:34 PM 46.4 °F 46.4 °F 100% 29.99 in 0.2 mi Calm Calm - N/A Fog Fog
10:53 PM 46.4 °F 46.4 °F 100% 29.99 in 0.2 mi Calm Calm - N/A Fog Fog
11:14 PM 46.4 °F 46.4 °F 100% 29.99 in 0.5 mi Calm Calm - N/A Fog Fog